Location: Corona
(40.7470°N, 73.8601°W)
Time: 00:56:31
(UTC+00:00)

Cosmos 1378 - Pass Details

Date: 22 September 2019
Orbit: 493 x 502 km, 82.5° (Epoch: 13 October)

Event Time Altitude Azimuth Distance (km) Brightness Sun altitude
Rises 23:17:34 0° 348° (NNW) 2,607 7.0 -5.5°
Reaches altitude 10° 23:19:43 10° 345° (NNW) 1,717 6.1 -5.9°
Maximum altitude 23:23:26 61° 265° (W) 572 3.8 -6.6°
Drops below altitude 10° 23:27:06 10° 185° (S) 1,698 5.8 -7.3°
Sets 23:29:13 0° 181° (S) 2,575 6.7 -7.7°
